Weather Roundup
Issued by NWS Chicago, IL

Home | Current Version | Previous Version | Graphics & Text | Print | Product List | Glossary On
Versions: 1 2 3 4 5 6 7 8 9 10 11 12 13 14 15 16 17 18 19 20 21 22 23 24 25 26 27 28 29 30 31 32 33 34 35 36 37 38 39 40 41 42 43 44 45 46 47 48 49 50
075
NZUS59 KLOT 011403
HRRLOT

CHICAGO AREA WEATHER ROUNDUP
NATIONAL WEATHER SERVICE CHICAGO/ROMEOVILLE IL
900 AM CDT SUN MAY 01 2016

NOTE: "FAIR" INDICATES FEW OR NO CLOUDS BELOW 12,000 FEET WITH NO
SIGNIFICANT WEATHER AND/OR OBSTRUCTIONS TO VISIBILITY.

* THESE STATIONS ARE NOT UNDER NWS QUALITY CONTROL. THEY ALSO MAY NOT
  REPORT WEATHER SUCH AS PRECIPITATION OR FOG.

ILZ005-006-012>014-019>023-011500-
NORTHEAST ILLINOIS

CITY           SKY/WX    TMP DP  RH WIND       PRES   REMARKS
OHARE          FOG       43  43 100 NE13      30.00R VSB 3/4
MIDWAY         CLOUDY    45  42  89 N13       29.99R FOG
AURORA         CLOUDY    46  44  93 NE9       30.00R FOG
LANSING*       FOG       46  46 100 N6        29.97S VSB 1/2
WAUKEGAN       FOG       43  43 100 N12       30.01R VSB 1
DUPAGE AIRPORT CLOUDY    44  42  93 NE12      29.99R FOG
WHEELING       CLOUDY    43  43 100 N13G22    30.01R FOG
$$

WIZ051-052-058>065-066-070>072-011500-
SOUTHEAST WISCONSIN

CITY           SKY/WX    TMP DP  RH WIND       PRES   REMARKS
MILWAUKEE      CLOUDY    42  40  92 N15G28    30.04R
KENOSHA*       LGT RAIN  44  42  93 N12       30.02R VSB 1
RACINE*        LGT RAIN  42  40  92 N14G22    30.04R FOG
BURLINGTON     CLOUDY    42  42  99 NE10      30.03R FOG
WAUKESHA       RAIN      39  39 100 NE10      30.05R FOG
$$

INZ001>003-010>013-019-020-011500-
NORTHWEST INDIANA

CITY           SKY/WX    TMP DP  RH WIND       PRES   REMARKS
GARY*          NOT AVBL
MICHIGAN CITY* NOT AVBL
RENSSELAER*    NOT AVBL
VALPARAISO     FOG       50  49  96 N7        29.96S VSB 3/4
$$

LMZ740>746-011500-
SOUTHERN LAKE MICHIGAN

STATION/POSITION TIME  SKY/WX   TEMP WIND        PRES    VSBY
                                AIR  DIR/SP/G
                 (UTC)          (F)  (DEG/KT/KT) (MB)    (MI)
HARRISON CRIB    1300            43   30/ 17/ 19   N/A
BURNHAM HARBOR   1400            43  350/  7/ 14   N/A
CALUMET HARBOR   1300            44   10/ 11/ 15 1014.2R
BURNS HARBOR     1313            45   30/ 15/ 16 1014.9S
MICHIGAN CITY    1300            45  360/ 14/ 16   N/A
$$

ABBREVIATIONS USED IN REMARKS
   TC - TEMPERATURE IN CELSIUS
  WCI - WIND CHILL INDEX
   HX - HEAT INDEX
  VSB - VISIBILITY
$$




USA.gov is the U.S. government's official web portal to all federal, state and local government web resources and services.